When you browse on this site, cookies collect data to enhance your experience and personalize the content and advertising you see.
Visit our Privacy Policy to learn more. By continuing to use the site, you agree to this use of cookies and data.
  • Em Portugal
  • Lista de países
  • Para 7 dias
  • Temperatura da água
  • Mapa do tempo
  • Widgets de tempo
  • user-avatar
    Iniciar Sessão

    Previsão horária em Benguela

    Hoje, 17 Fevereiro, Segunda-feira

    Tempo Temperatura Precipitação Vento Pressão Humidade
    00:00 +26°C° 1.6 mm 2 m/s 758 mmHg 90%
    01:00 +26°C° 0 mm 2 m/s 758 mmHg 89%
    02:00 +26°C° 0.3 mm 2 m/s 758 mmHg 88%
    03:00 +26°C° 0.3 mm 2 m/s 758 mmHg 87%
    04:00 +27°C° 0.3 mm 2 m/s 758 mmHg 87%
    05:00 +27°C° 0 mm 2 m/s 758 mmHg 85%
    06:00 +27°C° 0 mm 2 m/s 758 mmHg 84%
    07:00 +28°C° 0 mm 2 m/s 759 mmHg 85%
    08:00 +28°C° 0 mm 1 m/s 759 mmHg 81%
    09:00 +29°C° 0 mm 1 m/s 759 mmHg 77%
    10:00 +30°C° 0 mm 1 m/s 759 mmHg 73%
    11:00 +30°C° 0 mm 1 m/s 759 mmHg 73%
    12:00 +30°C° 0 mm 2 m/s 758 mmHg 74%
    13:00 +30°C° 0 mm 2 m/s 758 mmHg 74%
    14:00 +30°C° 0 mm 2 m/s 757 mmHg 75%
    15:00 +30°C° 0 mm 2 m/s 757 mmHg 76%
    16:00 +30°C° 0 mm 2 m/s 756 mmHg 76%
    17:00 +29°C° 0.1 mm 2 m/s 757 mmHg 78%
    18:00 +29°C° 0.1 mm 2 m/s 757 mmHg 79%
    19:00 +29°C° 0.1 mm 2 m/s 757 mmHg 81%
    20:00 +28°C° 0 mm 1 m/s 758 mmHg 83%
    21:00 +28°C° 0 mm 1 m/s 758 mmHg 86%
    22:00 +28°C° 0 mm 1 m/s 759 mmHg 88%
    23:00 +28°C° 0 mm 1 m/s 759 mmHg 89%

    Amanhã, 18 Fevereiro, Terça-feira

    Tempo Temperatura Precipitação Vento Pressão Humidade
    00:00 +28°C° 0 mm 1 m/s 758 mmHg 90%
    01:00 +27°C° 0 mm 1 m/s 758 mmHg 90%
    02:00 +27°C° 0 mm 1 m/s 758 mmHg 91%
    03:00 +27°C° 0 mm 1 m/s 758 mmHg 91%
    04:00 +27°C° 0 mm 1 m/s 757 mmHg 92%
    05:00 +27°C° 0 mm 1 m/s 758 mmHg 89%
    06:00 +28°C° 0 mm 1 m/s 758 mmHg 87%
    07:00 +28°C° 0 mm 1 m/s 759 mmHg 85%
    08:00 +29°C° 0 mm 1 m/s 759 mmHg 77%
    09:00 +31°C° 0 mm 1 m/s 758 mmHg 69%
    10:00 +32°C° 0 mm 1 m/s 758 mmHg 62%
    11:00 +34°C° 0 mm 2 m/s 758 mmHg 59%
    12:00 +35°C° 0 mm 3 m/s 758 mmHg 57%
    13:00 +36°C° 0 mm 5 m/s 757 mmHg 54%
    14:00 +35°C° 0 mm 5 m/s 756 mmHg 59%
    15:00 +34°C° 0 mm 4 m/s 756 mmHg 63%
    16:00 +33°C° 0 mm 4 m/s 755 mmHg 68%
    17:00 +32°C° 0 mm 4 m/s 756 mmHg 71%
    18:00 +30°C° 0 mm 3 m/s 756 mmHg 75%
    19:00 +29°C° 0 mm 2 m/s 757 mmHg 78%
    20:00 +29°C° 0 mm 2 m/s 757 mmHg 79%
    21:00 +29°C° 0 mm 2 m/s 758 mmHg 80%
    22:00 +29°C° 0 mm 2 m/s 758 mmHg 81%
    23:00 +29°C° 0 mm 2 m/s 758 mmHg 82%

    Depois de amanhã, 19 Fevereiro, Quarta-feira

    Tempo Temperatura Precipitação Vento Pressão Humidade
    00:00 +29°C° 0 mm 2 m/s 758 mmHg 82%
    01:00 +28°C° 0 mm 1 m/s 757 mmHg 83%
    02:00 +28°C° 0 mm 1 m/s 757 mmHg 83%
    03:00 +28°C° 0 mm 1 m/s 757 mmHg 84%
    04:00 +28°C° 0 mm 1 m/s 757 mmHg 84%
    05:00 +28°C° 0 mm 1 m/s 757 mmHg 84%
    06:00 +28°C° 0 mm 1 m/s 757 mmHg 84%
    07:00 +26°C° 0 mm 0 m/s 758 mmHg 84%
    08:00 +29°C° 0 mm 1 m/s 758 mmHg 78%
    09:00 +31°C° 0 mm 1 m/s 758 mmHg 72%
    10:00 +32°C° 0 mm 2 m/s 758 mmHg 67%
    11:00 +32°C° 0 mm 2 m/s 758 mmHg 64%
    12:00 +34°C° 0 mm 3 m/s 757 mmHg 62%
    13:00 +35°C° 0 mm 3 m/s 757 mmHg 59%
    14:00 +34°C° 0 mm 3 m/s 756 mmHg 61%
    15:00 +34°C° 0 mm 3 m/s 756 mmHg 64%
    16:00 +33°C° 0 mm 3 m/s 755 mmHg 66%
    17:00 +31°C° 0 mm 3 m/s 756 mmHg 70%
    18:00 +31°C° 0 mm 3 m/s 756 mmHg 73%
    19:00 +30°C° 0 mm 3 m/s 757 mmHg 77%
    20:00 +29°C° 0 mm 2 m/s 757 mmHg 78%
    21:00 +29°C° 0 mm 2 m/s 758 mmHg 78%
    22:00 +29°C° 0 mm 2 m/s 758 mmHg 79%
    23:00 +29°C° 0 mm 2 m/s 758 mmHg 80%

    20 Fevereiro, Quinta-feira

    Tempo Temperatura Precipitação Vento Pressão Humidade
    00:00 +29°C° 0 mm 2 m/s 758 mmHg 80%
    01:00 +29°C° 0 mm 2 m/s 758 mmHg 81%
    02:00 +29°C° 0 mm 2 m/s 757 mmHg 81%
    03:00 +29°C° 0 mm 2 m/s 757 mmHg 81%
    04:00 +29°C° 0 mm 2 m/s 757 mmHg 82%
    05:00 +29°C° 0 mm 2 m/s 757 mmHg 81%
    06:00 +29°C° 0 mm 1 m/s 757 mmHg 81%
    07:00 +29°C° 0 mm 1 m/s 757 mmHg 80%
    08:00 +30°C° 0 mm 2 m/s 757 mmHg 74%
    09:00 +32°C° 0 mm 2 m/s 758 mmHg 67%
    10:00 +34°C° 0 mm 2 m/s 758 mmHg 60%
    11:00 +35°C° 0 mm 3 m/s 757 mmHg 58%
    12:00 +36°C° 0 mm 3 m/s 757 mmHg 56%
    13:00 +36°C° 0 mm 4 m/s 756 mmHg 54%
    14:00 +36°C° 0 mm 4 m/s 755 mmHg 55%
    15:00 +35°C° 0 mm 5 m/s 755 mmHg 57%
    16:00 +35°C° 0 mm 5 m/s 754 mmHg 58%
    17:00 +34°C° 0 mm 4 m/s 755 mmHg 64%
    18:00 +32°C° 0 mm 4 m/s 755 mmHg 69%
    19:00 +30°C° 0 mm 4 m/s 756 mmHg 75%
    20:00 +29°C° 0 mm 3 m/s 756 mmHg 75%
    21:00 +29°C° 0 mm 3 m/s 757 mmHg 76%
    22:00 +29°C° 0 mm 2 m/s 757 mmHg 76%
    23:00 +29°C° 0 mm 2 m/s 757 mmHg 77%

    21 Fevereiro, Sexta-feira

    Tempo Temperatura Precipitação Vento Pressão Humidade
    00:00 +29°C° 0 mm 1 m/s 757 mmHg 78%
    01:00 +29°C° 0 mm 1 m/s 757 mmHg 79%
    02:00 +29°C° 0 mm 1 m/s 756 mmHg 79%
    03:00 +28°C° 0 mm 1 m/s 756 mmHg 80%
    04:00 +26°C° 0 mm 0 m/s 756 mmHg 80%
    05:00 +27°C° 0 mm 0 m/s 756 mmHg 79%
    06:00 +27°C° 0 mm 0 m/s 757 mmHg 78%
    07:00 +27°C° 0 mm 0 m/s 757 mmHg 77%
    14:00 +37°C° 0 mm 4 m/s 755 mmHg 53%
    15:00 +36°C° 0 mm 4 m/s 754 mmHg 55%
    16:00 +35°C° 0 mm 4 m/s 754 mmHg 58%
    17:00 +34°C° 0 mm 3 m/s 754 mmHg 62%
    18:00 +33°C° 0 mm 3 m/s 755 mmHg 67%
    19:00 +30°C° 0 mm 2 m/s 755 mmHg 72%
    20:00 +30°C° 0 mm 2 m/s 756 mmHg 73%
    21:00 +30°C° 0 mm 2 m/s 757 mmHg 74%
    22:00 +29°C° 0 mm 2 m/s 757 mmHg 75%
    23:00 +29°C° 0 mm 2 m/s 757 mmHg 76%

    22 Fevereiro, Sábado

    Tempo Temperatura Precipitação Vento Pressão Humidade
    00:00 +29°C° 0 mm 2 m/s 757 mmHg 77%
    01:00 +29°C° 0 mm 2 m/s 757 mmHg 78%
    02:00 +29°C° 0 mm 2 m/s 756 mmHg 79%
    03:00 +28°C° 0 mm 1 m/s 756 mmHg 80%
    04:00 +28°C° 0 mm 1 m/s 756 mmHg 81%
    05:00 +28°C° 0 mm 1 m/s 756 mmHg 80%
    06:00 +29°C° 0 mm 1 m/s 757 mmHg 80%
    07:00 +29°C° 0 mm 1 m/s 757 mmHg 79%
    08:00 +30°C° 0 mm 1 m/s 757 mmHg 73%
    09:00 +32°C° 0 mm 2 m/s 758 mmHg 67%
    10:00 +34°C° 0 mm 2 m/s 758 mmHg 61%
    11:00 +35°C° 0 mm 3 m/s 757 mmHg 60%
    12:00 +35°C° 0 mm 3 m/s 756 mmHg 58%
    13:00 +36°C° 0 mm 4 m/s 756 mmHg 57%
    14:00 +35°C° 0 mm 4 m/s 755 mmHg 57%
    15:00 +35°C° 0 mm 4 m/s 755 mmHg 57%
    16:00 +35°C° 0 mm 4 m/s 755 mmHg 57%
    17:00 +33°C° 0 mm 3 m/s 755 mmHg 63%
    18:00 +31°C° 0 mm 3 m/s 755 mmHg 68%
    19:00 +30°C° 0 mm 3 m/s 756 mmHg 74%
    20:00 +29°C° 0 mm 3 m/s 756 mmHg 76%
    21:00 +29°C° 0 mm 2 m/s 757 mmHg 78%
    22:00 +28°C° 0 mm 2 m/s 758 mmHg 79%
    23:00 +28°C° 0 mm 2 m/s 757 mmHg 80%
    Mostrar mais